Wind_Speed
8 7 7 6 7 6 11 7 2 5 4 3 10 8 7 13 7 3 1 11 19 25 26 26 27 29 30 30 28 25 24 23 23 21 18 15 15 17 18 19 18 16 15 13 13 13 13 14 14
9 7 7 6 8 10 10 5 12 1 5 7 4 6 8 7 4 4 3 14 21 24 27 28 28 29 29 29 27 25 26 25 25 21 18 15 16 18 18 18 17 16 15 14 13 13 13 13 12
8 6 11 5 11 12 6 8 6 2 2 7 4 3 5 3 4 4 5 16 23 23 27 28 29 29 29 28 26 25 25 26 25 21 18 17 18 19 19 19 18 16 15 14 13 12 12 12 11
6 7 8 10 15 11 2 6 0 3 2 7 6 4 3 5 5 3 11 17 21 21 24 27 30 29 29 27 25 24 25 27 25 22 19 18 19 20 20 19 18 16 15 14 13 12 12 11 9
10 9 11 15 19 8 4 6 6 5 6 7 9 6 1 8 8 6 13 16 19 20 21 27 29 29 28 26 25 25 26 28 25 23 20 19 20 20 20 19 17 16 15 13 12 11 10 8 6
15 13 14 18 19 8 5 10 8 12 7 7 9 9 7 8 7 6 11 14 17 20 20 28 29 28 27 26 25 25 27 27 26 24 22 21 21 21 20 19 17 16 14 13 12 10 8 7 5
17 13 19 21 17 11 10 10 14 8 8 10 10 8 3 11 9 3 9 11 17 19 20 24 30 29 27 26 26 25 25 27 27 26 24 23 22 22 21 20 18 16 14 12 11 9 8 6 5
17 13 21 20 16 14 9 14 14 13 13 10 7 2 4 16 11 4 8 11 17 19 20 21 25 30 30 28 26 26 24 26 27 27 26 25 24 23 22 20 18 16 14 13 11 9 7 6 4
12 11 15 20 14 12 7 15 19 13 15 16 16 12 11 12 10 5 9 13 17 20 22 22 25 27 27 25 29 27 25 25 26 28 28 26 24 24 23 21 19 17 16 14 11 9 8 6 4
15 13 17 4 2 7 11 15 17 17 21 19 20 18 13 9 7 7 13 16 20 22 23 24 26 26 27 25 25 30 28 28 28 29 30 28 23 19 18 23 21 20 18 15 13 11 8 6 4
15 15 12 5 9 14 18 18 19 20 21 24 20 22 18 16 15 13 15 19 21 21 22 23 25 26 26 25 24 26 23 24 28 31 31 30 22 20 21 17 23 21 19 16 14 11 9 8 8
8 11 11 12 13 15 18 20 22 22 25 24 24 24 24 23 19 16 15 19 21 22 23 24 25 27 28 25 25 24 24 25 24 29 32 29 26 25 22 17 17 21 16 15 14 10 11 9 8
13 7 10 12 12 15 16 20 19 22 18 20 23 23 24 25 23 20 18 16 20 24 24 26 26 27 31 33 26 26 26 26 25 26 32 29 27 26 24 18 16 14 14 15 15 13 11 9 7
8 7 8 8 11 13 15 18 18 13 9 14 16 19 20 22 24 23 20 18 19 24 25 26 28 30 31 34 35 34 32 26 26 25 31 36 34 31 30 28 26 21 17 14 13 13 12 10 9
6 9 11 13 14 10 13 16 20 19 18 14 13 15 17 19 20 22 22 20 19 24 25 28 29 29 32 33 35 35 30 28 27 27 32 36 37 36 33 31 28 26 25 20 18 16 14 12 11
9 7 11 9 7 8 7 13 6 8 9 12 14 14 15 17 16 15 16 15 15 19 22 25 25 28 32 34 36 38 34 33 27 28 33 39 39 38 36 32 31 27 25 22 22 19 15 12 11
9 10 7 4 7 8 11 11 2 7 16 20 19 18 16 17 17 16 17 15 14 18 21 23 26 28 31 31 28 30 31 30 27 27 28 35 40 39 38 33 24 26 25 24 25 21 20 14 13
5 9 8 10 4 9 14 17 17 18 18 20 19 20 19 18 19 16 15 17 17 18 19 21 24 28 26 25 27 25 27 28 29 29 29 37 35 34 38 35 35 32 23 20 20 23 20 19 13
7 8 10 8 9 12 15 16 15 19 19 20 19 17 18 18 16 16 16 19 21 23 25 27 28 31 26 28 28 27 31 30 29 29 32 33 37 44 44 38 38 33 30 28 28 27 25 20 20
10 11 12 9 10 11 15 18 17 18 21 22 21 20 20 21 20 18 18 17 23 26 28 31 33 36 35 30 30 28 27 27 26 26 28 32 35 35 38 35 33 33 31 34 30 30 27 24 19
12 12 11 14 13 16 20 21 17 15 16 17 20 23 24 24 23 23 21 18 18 24 28 34 37 38 39 37 31 31 27 25 26 30 31 34 41 39 40 37 38 36 39 37 34 35 32 22 18
11 4 9 13 14 14 14 17 18 14 14 15 19 21 23 24 23 21 21 22 21 19 19 25 35 42 41 42 32 35 38 35 37 33 31 31 37 41 41 41 43 44 45 40 31 33 32 27 21
9 5 11 15 17 18 20 13 16 17 17 14 10 14 19 25 29 29 25 25 23 21 20 21 25 34 43 38 43 37 36 32 25 25 29 29 30 36 38 39 39 40 40 34 27 26 26 28 25
11 13 15 16 16 15 17 10 6 10 14 13 18 24 25 24 23 17 19 19 21 22 22 22 24 28 33 38 41 43 42 39 29 28 29 29 24 29 33 34 36 35 33 30 29 27 25 28 34
9 13 10 12 12 12 7 10 11 17 10 11 14 20 20 17 17 16 17 16 18 21 23 24 24 27 27 31 38 42 44 37 38 32 27 24 26 26 30 35 34 30 32 27 25 27 28 28 28
5 7 8 13 13 17 19 10 8 7 5 4 6 8 10 13 14 13 13 16 17 19 21 20 23 26 25 27 33 36 38 36 35 32 28 27 26 25 26 28 28 27 24 23 24 25 26 29 31
2 8 8 11 16 15 13 15 14 7 4 5 5 8 10 14 19 21 20 20 21 21 23 23 20 23 26 28 29 32 34 35 33 31 29 26 27 26 24 22 22 24 23 23 22 21 24 26 26
8 5 6 4 5 10 9 16 13 3 6 9 13 15 19 20 20 23 24 22 21 21 22 23 21 19 23 27 29 32 35 35 31 29 27 27 24 23 22 21 21 22 22 21 23 21 20 22 22
6 8 6 4 4 5 10 8 8 13 13 15 10 16 21 20 22 22 25 24 22 20 20 22 21 18 19 24 27 29 29 29 29 27 26 25 26 26 25 22 20 19 20 20 21 20 19 20 20
10 12 11 8 7 7 8 18 13 7 9 13 20 29 22 19 21 20 23 24 22 22 21 18 19 17 14 20 23 27 27 28 28 28 28 27 25 23 20 17 17 16 16 16 16 17 17 16 16
Wind_Direction
304 312 300 254 238 235 240 214 351 189 198 354 293 263 300 321 308 6 136 177 166 166 176 181 179 176 176 178 180 180 180 178 173 168 164 162 163 160 157 154 155 155 153 150 145 143 139 134 133
285 310 268 255 249 219 212 209 204 42 332 330 303 238 251 271 316 307 106 181 167 170 177 181 182 180 179 182 185 186 186 183 178 173 171 170 169 164 162 160 161 159 157 151 147 142 141 136 133
274 292 268 236 237 241 243 178 106 328 46 2 323 279 318 344 326 291 243 173 165 170 176 182 181 182 183 184 187 189 190 186 182 178 178 179 174 169 167 166 165 162 158 153 149 145 144 142 135
237 240 242 243 231 225 264 141 223 321 121 3 344 239 263 25 335 315 159 160 168 171 172 185 183 182 184 183 184 185 188 188 187 186 186 185 178 175 174 171 168 167 162 158 154 151 150 146 142
221 242 245 231 235 221 225 256 298 303 318 345 350 349 60 24 18 148 163 163 170 174 175 183 185 185 185 184 184 184 188 189 193 194 194 190 184 182 178 176 174 171 169 166 161 156 153 150 151
217 234 238 233 226 221 253 266 271 287 288 312 346 323 61 36 18 138 166 169 178 178 180 185 188 189 188 188 188 189 189 194 198 202 201 196 189 186 183 181 180 178 176 172 168 163 157 156 160
229 215 236 246 243 222 252 268 266 285 285 292 332 313 113 18 3 157 177 180 183 181 181 187 188 193 192 193 194 196 199 201 203 205 204 198 194 191 189 186 184 185 181 179 175 168 164 169 178
225 241 242 243 245 237 227 256 256 258 275 290 280 236 322 338 344 200 192 185 186 188 185 188 188 194 196 197 200 200 206 207 206 206 205 200 196 196 194 193 191 189 186 187 183 178 179 193 207
210 227 234 235 226 235 240 248 249 264 263 269 273 271 298 320 339 218 196 191 190 194 192 190 192 195 195 198 202 205 205 209 210 209 207 203 201 200 200 198 195 195 193 193 191 192 197 210 231
209 222 237 248 229 238 232 249 260 269 268 259 267 268 273 283 310 259 224 210 199 200 200 196 196 195 194 198 201 203 206 207 209 211 209 205 200 205 206 206 200 198 199 198 196 200 210 224 241
219 239 237 209 229 237 251 252 254 260 261 260 268 272 263 267 274 265 246 229 220 208 205 203 203 197 195 197 199 199 201 204 207 210 209 204 203 203 200 208 202 205 204 203 205 206 216 229 234
223 235 242 230 233 239 254 262 261 254 263 269 269 267 272 267 265 261 258 239 228 222 215 208 208 203 201 199 200 199 200 201 202 206 207 203 204 207 201 202 203 207 213 204 207 210 214 239 235
225 210 235 242 244 251 257 258 260 258 257 263 265 263 264 266 263 259 255 247 236 228 222 216 210 211 212 205 205 202 201 204 204 206 210 205 205 209 205 203 203 209 210 216 216 213 225 225 220
173 202 217 232 243 242 251 259 249 246 234 250 257 261 259 259 259 258 255 254 240 231 226 217 217 220 220 218 214 214 213 209 205 207 213 213 212 215 213 215 217 218 214 213 225 229 231 226 224
183 232 213 231 239 252 272 262 252 258 262 269 265 264 260 256 259 254 255 260 248 234 229 224 220 223 229 227 222 222 215 208 210 207 215 217 217 217 213 220 223 225 228 226 231 239 235 239 230
234 243 250 144 209 225 220 268 205 199 260 269 277 276 265 259 263 261 263 272 255 240 231 228 221 222 230 232 223 225 219 219 213 211 219 223 221 221 222 223 224 227 228 231 231 237 237 226 238
204 263 219 263 215 261 237 281 301 251 279 281 275 267 269 268 263 268 274 275 281 246 233 231 230 221 232 229 220 219 221 217 216 216 216 226 223 224 224 222 223 228 232 229 236 234 236 236 233
229 237 227 266 263 240 269 273 278 278 275 271 276 275 267 265 266 270 276 280 277 271 244 238 234 231 227 222 222 216 216 217 214 217 217 222 227 230 231 231 233 233 228 235 233 234 239 235 236
252 256 259 261 266 268 273 278 283 287 282 274 268 264 269 274 273 276 288 289 281 273 270 258 247 238 223 223 221 214 217 218 215 217 216 227 228 227 228 226 236 236 240 233 239 244 239 246 238
236 246 252 256 249 261 268 275 281 278 279 276 275 272 270 269 266 266 270 276 272 266 262 259 252 247 241 228 222 216 216 218 219 218 219 223 227 229 231 223 230 239 244 242 239 242 244 244 240
231 257 278 285 297 273 266 272 267 261 236 263 274 275 271 268 267 267 263 264 273 270 264 256 251 247 247 240 233 226 221 220 225 221 224 230 227 231 235 233 221 230 230 247 247 249 246 236 235
259 264 276 286 286 289 323 292 289 278 277 263 268 275 275 273 270 263 261 263 262 272 271 265 254 246 243 244 227 230 235 230 241 235 233 234 229 228 232 229 227 229 232 239 243 244 241 237 235
281 316 285 289 283 291 281 269 280 281 282 294 301 300 282 279 279 274 272 267 263 266 267 265 260 249 242 233 234 225 224 232 232 227 229 234 229 223 222 224 226 229 236 238 234 241 244 228 220
302 278 277 266 266 270 280 306 308 313 327 322 311 309 308 302 291 300 292 286 281 282 277 271 263 256 245 234 233 226 225 222 223 225 221 228 219 225 223 218 219 226 233 230 239 238 237 242 237
260 266 279 279 254 259 323 304 288 304 0 327 315 306 296 313 310 307 301 308 303 300 289 275 266 259 253 235 227 228 227 225 218 219 213 206 200 209 217 216 217 221 227 227 232 240 244 244 246
283 306 285 289 290 299 315 278 264 8 59 329 354 5 353 338 324 317 318 321 323 324 320 298 268 256 248 237 228 226 225 221 221 219 212 207 207 211 212 215 216 220 224 225 226 232 239 243 247
177 253 358 292 276 267 256 256 256 231 178 254 310 328 338 338 334 334 325 318 316 316 323 320 293 258 244 235 228 223 221 214 214 210 205 206 207 208 204 209 214 222 224 223 224 230 235 235 247
262 15 253 217 283 289 292 307 290 239 279 316 320 327 331 320 318 330 326 326 324 317 315 320 314 278 247 236 228 223 219 214 207 206 202 200 198 193 201 208 212 216 220 219 226 223 224 225 239
197 217 219 268 265 288 299 282 36 313 300 306 297 313 318 314 316 307 314 316 320 320 320 326 321 305 260 234 226 220 214 205 200 195 190 191 200 207 214 214 212 212 216 216 219 222 221 222 225
280 279 260 229 240 233 287 278 288 356 327 309 286 305 309 303 307 304 300 306 310 317 325 323 335 323 281 238 222 218 209 191 191 190 193 200 207 209 205 197 198 200 201 198 197 201 208 207 206
Height
1515 1516 1516 1515 1510 1496 1489 1488 1483 1484 1485 1489 1490 1489 1481 1479 1473 1480 1486 1486 1489 1490 1490 1497 1502 1507 1510 1514 1517 1520 1523 1526 1529 1531 1533 1535 1537 1539 1540 1541 1543 1544 1545 1546 1547 1549 1550 1550 1551
1514 1515 1515 1508 1502 1494 1485 1481 1486 1487 1488 1489 1487 1487 1485 1480 1485 1486 1486 1485 1488 1490 1489 1494 1500 1505 1510 1514 1518 1521 1523 1526 1528 1531 1534 1536 1538 1540 1542 1543 1544 1545 1546 1547 1549 1550 1551 1552 1553
1512 1514 1511 1497 1491 1489 1482 1483 1486 1489 1489 1489 1486 1487 1485 1484 1487 1487 1486 1484 1489 1491 1492 1493 1499 1504 1509 1513 1518 1522 1525 1527 1529 1531 1534 1537 1539 1541 1542 1543 1545 1546 1547 1548 1550 1551 1552 1553 1554
1512 1512 1510 1500 1490 1484 1488 1486 1491 1488 1487 1488 1488 1484 1487 1489 1488 1488 1485 1487 1490 1492 1494 1495 1499 1504 1508 1512 1516 1521 1525 1528 1531 1533 1535 1538 1539 1541 1542 1544 1545 1547 1548 1549 1551 1552 1553 1554 1555
1510 1507 1500 1492 1487 1482 1494 1493 1493 1491 1489 1487 1488 1486 1485 1489 1487 1487 1487 1489 1492 1496 1498 1497 1500 1505 1509 1512 1516 1520 1524 1528 1532 1534 1536 1538 1540 1542 1543 1545 1547 1548 1549 1551 1552 1553 1554 1555 1555
1503 1502 1497 1489 1484 1486 1496 1493 1493 1491 1490 1488 1490 1488 1489 1491 1491 1490 1491 1492 1494 1496 1500 1498 1502 1504 1508 1513 1517 1520 1522 1527 1531 1534 1536 1538 1540 1542 1544 1546 1548 1549 1551 1552 1553 1553 1554 1555 1556
1496 1492 1490 1483 1481 1487 1493 1492 1490 1489 1491 1489 1492 1489 1489 1492 1492 1492 1492 1494 1495 1496 1498 1500 1502 1507 1508 1511 1517 1521 1523 1525 1529 1533 1535 1538 1541 1542 1544 1545 1548 1551 1552 1553 1553 1554 1554 1555 1555
1495 1489 1486 1482 1484 1492 1492 1492 1490 1491 1489 1493 1493 1486 1488 1492 1492 1492 1493 1494 1496 1497 1499 1501 1502 1505 1508 1511 1515 1519 1523 1526 1528 1531 1534 1537 1539 1542 1544 1546 1548 1550 1552 1553 1554 1555 1555 1555 1556
1494 1491 1483 1481 1488 1492 1494 1490 1489 1491 1492 1491 1491 1491 1492 1492 1492 1492 1493 1493 1495 1497 1498 1499 1501 1503 1507 1510 1513 1517 1520 1524 1528 1530 1533 1536 1539 1541 1543 1545 1547 1549 1551 1552 1554 1555 1554 1555 1556
1488 1484 1480 1482 1486 1493 1491 1491 1489 1490 1487 1486 1487 1489 1491 1491 1491 1493 1492 1493 1492 1494 1496 1497 1498 1500 1504 1510 1511 1514 1518 1521 1524 1528 1530 1533 1537 1540 1543 1544 1546 1548 1550 1551 1552 1553 1554 1555 1557
1484 1478 1481 1489 1493 1493 1488 1488 1490 1488 1485 1484 1485 1486 1488 1489 1489 1490 1490 1490 1492 1492 1495 1496 1496 1499 1502 1508 1509 1510 1515 1519 1521 1523 1527 1531 1535 1536 1540 1544 1544 1546 1548 1549 1551 1551 1553 1553 1555
1486 1484 1484 1486 1490 1490 1486 1487 1487 1486 1484 1485 1485 1484 1485 1485 1485 1486 1486 1487 1489 1491 1492 1494 1495 1494 1498 1503 1505 1508 1511 1514 1518 1520 1523 1527 1531 1533 1537 1543 1544 1544 1547 1548 1549 1551 1550 1551 1551
1484 1482 1484 1485 1485 1485 1485 1483 1486 1482 1482 1482 1481 1481 1480 1479 1480 1481 1483 1484 1486 1487 1488 1491 1491 1490 1492 1496 1500 1504 1507 1509 1514 1517 1520 1524 1526 1530 1534 1539 1543 1544 1547 1546 1549 1548 1548 1549 1549
1479 1481 1482 1483 1480 1481 1482 1478 1480 1477 1478 1476 1476 1476 1475 1475 1475 1476 1477 1479 1480 1483 1483 1485 1486 1486 1488 1491 1495 1497 1500 1505 1509 1514 1516 1519 1522 1526 1531 1534 1537 1540 1542 1545 1548 1547 1546 1547 1548
1480 1480 1477 1477 1476 1477 1477 1473 1470 1473 1473 1473 1472 1471 1471 1470 1471 1470 1472 1473 1474 1476 1478 1479 1481 1481 1482 1486 1490 1494 1497 1502 1504 1508 1511 1514 1519 1520 1525 1530 1534 1536 1537 1540 1543 1545 1544 1545 1545
1475 1474 1468 1462 1473 1473 1477 1468 1462 1468 1469 1468 1467 1467 1468 1468 1466 1467 1467 1466 1467 1471 1472 1474 1477 1477 1477 1480 1484 1487 1494 1494 1500 1504 1505 1509 1513 1516 1521 1524 1527 1532 1532 1535 1538 1541 1543 1541 1545
1469 1464 1464 1464 1468 1468 1470 1462 1460 1466 1465 1465 1464 1464 1463 1463 1463 1464 1464 1464 1464 1465 1467 1470 1470 1474 1473 1475 1480 1484 1487 1491 1496 1499 1501 1503 1505 1511 1515 1519 1524 1525 1530 1531 1534 1535 1539 1540 1541
1460 1469 1468 1471 1463 1465 1463 1461 1458 1459 1459 1459 1459 1458 1457 1458 1459 1461 1461 1461 1460 1460 1461 1465 1466 1468 1472 1472 1475 1481 1484 1485 1489 1492 1494 1497 1501 1507 1512 1513 1518 1522 1525 1530 1530 1529 1535 1537 1537
1471 1472 1471 1466 1464 1465 1463 1459 1455 1453 1453 1452 1453 1453 1452 1454 1455 1456 1456 1455 1454 1454 1455 1456 1459 1461 1464 1465 1467 1472 1475 1480 1481 1483 1487 1489 1494 1498 1501 1502 1509 1515 1521 1524 1523 1527 1529 1532 1530
1472 1470 1466 1461 1462 1463 1461 1457 1452 1450 1448 1449 1448 1447 1446 1448 1450 1451 1453 1450 1448 1448 1449 1450 1452 1454 1457 1459 1461 1465 1470 1474 1477 1480 1481 1483 1487 1491 1492 1496 1501 1507 1516 1518 1518 1519 1524 1525 1531
1467 1466 1463 1462 1457 1457 1453 1446 1441 1438 1442 1444 1442 1440 1440 1442 1443 1445 1445 1446 1445 1443 1443 1444 1445 1448 1448 1453 1456 1459 1463 1466 1468 1469 1469 1473 1479 1483 1486 1489 1493 1499 1503 1513 1512 1515 1517 1524 1525
1463 1455 1461 1460 1459 1455 1446 1450 1438 1433 1432 1432 1435 1436 1435 1435 1436 1437 1440 1440 1441 1440 1439 1437 1437 1438 1440 1444 1449 1450 1451 1454 1455 1460 1462 1467 1472 1476 1478 1481 1484 1488 1494 1501 1502 1508 1510 1515 1521
1460 1459 1460 1457 1453 1450 1444 1442 1427 1420 1423 1423 1426 1430 1434 1436 1435 1432 1433 1434 1435 1435 1434 1432 1430 1430 1432 1434 1437 1441 1444 1448 1455 1457 1455 1459 1464 1467 1471 1474 1477 1483 1489 1492 1497 1499 1501 1506 1512
1460 1459 1453 1448 1443 1449 1432 1434 1428 1425 1426 1430 1435 1436 1434 1432 1430 1428 1430 1431 1430 1429 1428 1426 1424 1423 1423 1425 1427 1430 1435 1440 1446 1448 1451 1451 1460 1462 1465 1469 1473 1478 1484 1485 1491 1492 1494 1498 1501
1461 1458 1454 1448 1436 1433 1422 1437 1430 1429 1435 1442 1442 1439 1437 1437 1434 1432 1430 1427 1425 1423 1421 1420 1419 1416 1415 1416 1419 1421 1425 1430 1437 1442 1444 1448 1449 1457 1459 1463 1467 1472 1478 1480 1485 1484 1488 1493 1495
1452 1461 1462 1469 1454 1441 1437 1441 1427 1428 1439 1444 1441 1441 1439 1438 1434 1433 1430 1427 1422 1419 1416 1413 1411 1410 1410 1410 1412 1415 1417 1423 1430 1434 1439 1442 1446 1451 1455 1457 1461 1466 1472 1474 1478 1480 1483 1486 1488
1452 1463 1459 1464 1458 1456 1438 1424 1418 1418 1435 1437 1438 1439 1438 1438 1436 1430 1427 1424 1420 1416 1412 1407 1404 1402 1404 1405 1406 1407 1411 1416 1420 1426 1430 1435 1441 1446 1449 1451 1455 1461 1465 1469 1472 1474 1477 1478 1482
1461 1460 1467 1465 1475 1453 1428 1430 1421 1420 1422 1429 1433 1434 1434 1432 1430 1427 1425 1422 1417 1413 1409 1404 1398 1395 1396 1398 1400 1402 1403 1408 1412 1418 1421 1428 1433 1437 1440 1445 1450 1455 1460 1463 1464 1468 1471 1472 1475
1455 1460 1465 1468 1471 1468 1452 1428 1420 1427 1429 1430 1433 1432 1431 1431 1428 1424 1423 1420 1416 1411 1406 1400 1394 1390 1389 1391 1394 1398 1398 1402 1406 1410 1415 1419 1423 1428 1434 1439 1444 1449 1452 1455 1458 1462 1465 1468 1470
1457 1456 1454 1466 1467 1466 1468 1440 1427 1430 1432 1431 1429 1427 1426 1428 1427 1422 1421 1417 1413 1408 1403 1398 1393 1389 1386 1387 1389 1393 1396 1396 1399 1403 1408 1412 1417 1423 1429 1435 1441 1445 1448 1450 1453 1457 1461 1464 1466